Location: Ferma
(41.9500°N, 44.5167°E)
Time: 18:14:44
(UTC+00:00)

NOSS 2-3 (D) - Pass Details

Date: 24 October 2021
Orbit: 538 x 1672 km, 63.3° (Epoch: 25 November)

Event Time Altitude Azimuth Distance (km) Brightness Sun altitude
Rises 14:31:43 0° 196° (SSW) 2,680 7.2 -5.3°
Reaches altitude 10° 14:33:55 10° 188° (S) 1,792 6.2 -5.7°
Maximum altitude 14:37:35 40° 118° (ESE) 832 3.9 -6.4°
Drops below altitude 10° 14:41:39 10° 48° (NE) 1,996 5.7 -7.2°
Enters shadow 14:43:24 - 43° (NE) 2,695 6.4 -7.5°
